Details From KRIC - Richmond Intl
To KWAL - WALLOPS FLIGHT FACILITY
Flight Number -
Tags decoded
Created
Modified
Stats Distance 113 nm / 209 km
Max Altitude 0 ft / 0 m
Waypoints 4
Social Downloads 0
Likes 0
Share VATSIM

Download

Looking for another format? Having issues loading an existing format? Contact us
Advertisement - Login to hide

Notes

Requested: KRIC AXASE FIBED KWAL

Route

KRIC AXASE FIBED KWAL

ID Type Via Altitude Latitude Longitude Leg Dist Tot Dist Heading (true) Name
O KRIC APT - 0 ft / 0 m 37.50473˚ -77.32011˚ - 0 nm - Richmond Intl
AXASE FIX - 0 ft / 0 m 38.10294˚ -75.33083˚ 100 nm 100 nm 69° / 70° -
FIBED FIX - 0 ft / 0 m 38.01834˚ -75.39833˚ 6 nm 106 nm 212° / 212° -
O KWAL APT - 0 ft / 0 m 37.94039˚ -75.46628˚ 5 nm 112 nm 215° / 214° WALLOPS FLIGHT FACILITY

Altitude Profile

Advertisement - Login to hide

KRIC

Details ICAO KRIC (RIC)
Name Richmond Intl
Region United States
Timezone America/New_York (UTC-4.0)
Stats Elevation 167 ft / 51 m (AMSL)
Location 37.504728° -77.320112°
Runways 3
Magnetic Variation 10.390° W

METAR

KRIC 210454Z 24006KT 10SM FEW070 SCT190 BKN250 24/21 A3006 RMK AO2 SLP183 T02440206 403110217

Decode

TAF

KRIC 202336Z 2100/2124 21008KT P6SM SCT050 SCT250 FM210600 36003KT P6SM SCT050 SCT250 FM211000 03005KT P6SM BKN008 FM211300 05006KT P6SM BKN025 FM211600 12005KT P6SM BKN045

Decode

Departure Runways

ID Width Length Bearing (true) Bearing (mag) Surface Threshold Offset Overrun Length
02 151 ft / 46 m 6,619 ft / 2,018 m 13.39° 23.78° Asphalt 0 ft / 0 m 125 ft / 38 m
07 98 ft / 30 m 5,312 ft / 1,619 m 57.36° 67.75° Asphalt 0 ft / 0 m 200 ft / 61 m
16 151 ft / 46 m 9,027 ft / 2,751 m 147.64° 158.03° Asphalt 0 ft / 0 m 1,001 ft / 305 m
20 151 ft / 46 m 6,619 ft / 2,018 m 193.39° 203.78° Asphalt 0 ft / 0 m 276 ft / 84 m
25 98 ft / 30 m 5,312 ft / 1,619 m 237.36° 247.75° Asphalt 0 ft / 0 m 0 ft / 0 m
34 151 ft / 46 m 9,027 ft / 2,751 m 327.66° 338.05° Asphalt 0 ft / 0 m 1,001 ft / 305 m

KWAL

Details ICAO KWAL (WAL)
Name WALLOPS FLIGHT FACILITY
Region United States
Timezone America/New_York (UTC-4.0)
Stats Elevation 40 ft / 12 m (AMSL)
Location 37.940390° -75.466276°
Runways 3
Magnetic Variation 11.524° W

METAR

KWAL 210454Z AUTO 24005KT 10SM CLR 23/22 A3005 RMK AO2 SLP172 T02330217 402940200

Decode

TAF

Not found

Destination Runways

ID Width Length Bearing (true) Bearing (mag) Surface Threshold Offset Overrun Length
04 150 ft / 46 m 8,757 ft / 2,669 m 32.07° 43.59° Asphalt 0 ft / 0 m 0 ft / 0 m
10 200 ft / 61 m 7,988 ft / 2,435 m 90.36° 101.88° Asphalt 0 ft / 0 m 0 ft / 0 m
17 150 ft / 46 m 4,816 ft / 1,468 m 157.81° 169.33° Asphalt 0 ft / 0 m 0 ft / 0 m
22 150 ft / 46 m 8,757 ft / 2,669 m 212.08° 223.60° Asphalt 0 ft / 0 m 0 ft / 0 m
28 200 ft / 61 m 7,988 ft / 2,435 m 270.37° 281.89° Asphalt 0 ft / 0 m 0 ft / 0 m
35 150 ft / 46 m 4,816 ft / 1,468 m 337.81° 349.33° Asphalt 0 ft / 0 m 0 ft / 0 m

Popular Alternatives